Weather History for Opa Locka, FL

Change the Weather History Date:

Saturday, May 3, 2014

  Actual Average Record
Temperature  
Mean Temperature 82 °F -  
Max Temperature 91 °F 84 °F 91 °F (2014)
Min Temperature 73 °F 69 °F 60 °F (1965)
Cooling Degree Days 17    
Growing Degree Days 32 (Base 50)    
Moisture  
Dew Point 69 °F    
Average Humidity 71    
Maximum Humidity 87    
Minimum Humidity 47    
Precipitation  
Precipitation 0.00 in - - ()
Sea Level Pressure  
Sea Level Pressure 29.96 in    
Wind  
Wind Speed 7 mph (WSW)    
Max Wind Speed 21 mph    
Max Gust Speed 24 mph    
Visibility 9 miles    
Events Rain , Thunderstorm    
Averages and records for this station are not official NWS values.
T = Trace of Precipitation, MM = Missing Value Source: NWS Daily Summary

Daily Weather History Graph

Daily Weather History Graph

Search for Another Location

Airport:

Trip Planner

Search our weather history database for the weather conditions in past years. The results will help you decide how hot, cold, wet, or windy it might be!

Date:

Astronomy

May. 03, 2014 Rise Set
Actual Time 6:42 AM EDT 7:53 PM EDT
Civil Twilight 6:18 AM EDT 8:18 PM EDT
Nautical Twilight 5:49 AM EDT 8:46 PM EDT
Astronomical Twilight 5:19 AM EDT 9:16 PM EDT
Moon 10:15 AM EDT (5/3) 11:55 PM EDT (5/3)
Length of Visible Light 13h 59m
Length of Day
13h 10m
Waxing Crescent, 19% of the Moon is Illuminated
May 3
Waxing Crescent
May 6
First Quarter
May 14
Full
May 21
Last Quarter
May 28
New

Hourly Weather History & Observations

Time (EDT) Temp. Heat Index Dew Point Humidity Pressure Visibility Wind Dir Wind Speed Gust Speed Precip Events Conditions
12:53 AM 77.0 °F - 69.1 °F 76% 29.98 in 10.0 mi NNE 5.8 mph - N/A   Clear
1:53 AM 75.9 °F - 68.0 °F 76% 29.96 in 10.0 mi Calm Calm - N/A   Clear
2:53 AM 75.0 °F - 68.0 °F 79% 29.94 in 10.0 mi ESE 3.5 mph - N/A   Clear
3:53 AM 75.9 °F - 66.9 °F 74% 29.94 in 10.0 mi Calm Calm - N/A   Clear
4:53 AM 75.0 °F - 68.0 °F 79% 29.93 in 10.0 mi East 4.6 mph - N/A   Clear
5:53 AM 75.2 °F - 69.8 °F 83% 29.93 in 10.0 mi South 3.5 mph - N/A   Mostly Cloudy
6:53 AM 77.0 °F - 70.0 °F 79% 29.94 in 10.0 mi SSW 3.5 mph - N/A   Clear
7:53 AM 79.0 °F - 72.0 °F 79% 29.95 in 10.0 mi SSW 6.9 mph - N/A   Scattered Clouds
8:53 AM 79.0 °F - 69.1 °F 72% 29.94 in 10.0 mi South 9.2 mph - N/A   Clear
9:53 AM 82.0 °F 85.9 °F 70.0 °F 67% 29.97 in 10.0 mi South 8.1 mph - N/A   Clear
10:53 AM 84.0 °F 88.4 °F 70.0 °F 63% 29.98 in 10.0 mi North - - N/A   Mostly Cloudy
11:53 AM 87.1 °F 90.6 °F 68.0 °F 53% 29.98 in 10.0 mi WSW 8.1 mph - N/A   Scattered Clouds
12:53 PM 88.0 °F 92.1 °F 69.1 °F 53% 29.96 in 10.0 mi WSW 9.2 mph - N/A   Clear
1:53 PM 87.1 °F 91.3 °F 69.1 °F 55% 29.94 in 10.0 mi South 9.2 mph - N/A   Mostly Cloudy
2:28 PM 88.0 °F 92.9 °F 70.0 °F 55% 29.93 in 10.0 mi South 10.4 mph - N/A Thunderstorm Overcast
2:53 PM 91.0 °F 95.2 °F 68.0 °F 47% 29.94 in 10.0 mi WSW 17.3 mph - N/A   Scattered Clouds
3:21 PM 86.0 °F 88.8 °F 66.9 °F 53% 29.93 in 10.0 mi WSW 20.7 mph - 0.00 in Rain , Thunderstorm Light Rain
3:53 PM 73.4 °F - - N/A% 29.96 in 2.0 mi SW 18.4 mph - N/A Rain , Thunderstorm Heavy Thunderstorms and Rain
3:56 PM 73.9 °F - - N/A% 29.96 in 3.0 mi WSW 18.4 mph 24.2 mph 0.00 in Rain , Thunderstorm Heavy Rain
4:31 PM 77.0 °F - - N/A% 29.94 in 7.0 mi WSW 5.8 mph - N/A   Mostly Cloudy
4:53 PM 78.1 °F - - N/A% 29.96 in 7.0 mi WSW 9.2 mph - N/A Rain Light Rain
5:16 PM 78.1 °F - - N/A% 29.96 in 10.0 mi West 10.4 mph - N/A Rain , Thunderstorm Light Rain
5:25 PM 78.1 °F - - N/A% 29.96 in 10.0 mi West 15.0 mph 23.0 mph N/A Thunderstorm Thunderstorm
5:40 PM 78.1 °F - - N/A% 29.97 in 10.0 mi NNW 17.3 mph - N/A Thunderstorm Scattered Clouds
5:49 PM 77.0 °F - - N/A% 29.97 in 10.0 mi North 16.1 mph - N/A Thunderstorm Mostly Cloudy
5:53 PM 75.9 °F - - N/A% 29.97 in 10.0 mi North 12.7 mph - N/A   Mostly Cloudy
6:53 PM 75.9 °F - - N/A% 29.96 in 10.0 mi North 6.9 mph - N/A   Scattered Clouds
7:53 PM 75.9 °F - 70.0 °F 82% 29.96 in 10.0 mi NNE 6.9 mph - N/A   Clear
8:53 PM 75.0 °F - 70.0 °F 84% 29.99 in 10.0 mi NW 3.5 mph - N/A   Partly Cloudy
9:53 PM 75.0 °F - 70.0 °F 84% 30.00 in 10.0 mi West 3.5 mph - N/A Rain Light Rain
10:53 PM 75.0 °F - 71.1 °F 87% 30.02 in 10.0 mi Calm Calm - 0.00 in   Clear
11:53 PM 75.0 °F - 71.1 °F 87% 30.02 in 10.0 mi South 3.5 mph - N/A   Clear